Address 0xe0af86eb0616f1a754acbc1d8d2613716843a7fc 8

Txn Hash Method
Block
From
To
Value [Txn Fee]
0x84018cf5c7f133a6b1292c6306062b7a9e6fe33f643d742b551c4fef6f815067Transfer131781682021-10-13 3:08:4514 days 29 mins ago0xaa25aa7a19f9c426e07dee59b12f944f4d9f1dd3 IN 0xe0af86eb0616f1a754acbc1d8d2613716843a7fc1 BNB0.000378
0xcd439f590fd5a912fabdeb6d908edcc0a92d5d4809d5b4ac257bc87c222f5817Transfer121648652021-09-07 17:43:5349 days 9 hrs ago0xe0af86eb0616f1a754acbc1d8d2613716843a7fcOUT 0xea55f04358fbd1cded2319ad5577c82d8043087f0 BNB0.00036225
0x33e27692d4a46ae1219e5250dfcdbd8557028f085463a10d95d2d9d700580563Mint121648402021-09-07 17:42:3849 days 9 hrs ago0xe0af86eb0616f1a754acbc1d8d2613716843a7fcOUT 0xf413a5b2359ab7cb33c47e5cb446ffcbf48ddd170 BNB0.00369725
0xf8b2d175e96705745c6e6bceb4ea99e1f8b41b67a78864d0848f0241fadf2589Claim Flux121644942021-09-07 17:25:2049 days 10 hrs ago0xe0af86eb0616f1a754acbc1d8d2613716843a7fcOUT 0xee0c0be04396b3877495783a3fd4b21328eea05c0 BNB0.0166795
0xbbcc17059a3517608e3ce3991480af2f5c037ee85dcacfb6aa70d4a0a6acc2dfClaim Flux121641942021-09-07 17:10:1649 days 10 hrs ago0xe0af86eb0616f1a754acbc1d8d2613716843a7fcOUT 0xee0c0be04396b3877495783a3fd4b21328eea05c0 BNB0.01738137
0xb921786b1cccf2286bbdd3b112f16af8dbe68ce9679486502f297baeedac0482Stake121641662021-09-07 17:08:5249 days 10 hrs ago0xe0af86eb0616f1a754acbc1d8d2613716843a7fcOUT 0x9dc393cce88fcba8063fa9582c0379e126345bc30 BNB0.00128222
0x81f1bf22fb05217d296714e81ebb6171ff5814ddc1d2aa71e6517bf296cb39b6Approve121641612021-09-07 17:08:3749 days 10 hrs ago0xe0af86eb0616f1a754acbc1d8d2613716843a7fcOUT 0xea55f04358fbd1cded2319ad5577c82d8043087f0 BNB0.00044406
0x2c4f8b9f6708c0d69560140578bbb73f3f56e69c4fb1b298c2060b653bb6c15fCross Refinance121640442021-09-07 17:02:4649 days 10 hrs ago0xe0af86eb0616f1a754acbc1d8d2613716843a7fcOUT 0x91f968c15d4a935b4f1132f933a841ce92a1f5c40.000039287638177 BNB0.00683136
0x421e04b2df1544cb7393474bed5799c6db19b632266617036010a5b484e64fe1Mint121640332021-09-07 17:02:1349 days 10 hrs ago0xe0af86eb0616f1a754acbc1d8d2613716843a7fcOUT 0x91f968c15d4a935b4f1132f933a841ce92a1f5c40 BNB0.00237062
0x2f5327cfaf737a676027de8c5311853ba098313ee7eb33d67e8e7a27d13e4abd0xef748bcf121627172021-09-07 15:56:2549 days 11 hrs ago0xe0af86eb0616f1a754acbc1d8d2613716843a7fcOUT 0x0bc9caec0148e83946975852246c3355df4615ff0.000039287638177 BNB0.00210059
0x3e74079043b34209278f8bffc676a33a48fe68a2d676fa547bbc8fb9178a86380xef748bcf121626092021-09-07 15:51:0149 days 11 hrs ago0xe0af86eb0616f1a754acbc1d8d2613716843a7fcOUT 0x0bc9caec0148e83946975852246c3355df4615ff0.000039287638177 BNB0.00210059
0x3f7e8fece3149b2bb794d936e4d4ec254b86b9b2622b0f724e4a68eaad0e4926Approve121626032021-09-07 15:50:4349 days 11 hrs ago0xe0af86eb0616f1a754acbc1d8d2613716843a7fcOUT 0x2789333fd99011c89eb32a8c044ebee1e507784c0 BNB0.00044383
0xb6b0ba8decf901a1f71f3ded7810b53ea5cc2898da706bd1f7a9abf96e1663e2Cross Borrow120608002021-09-04 2:21:4553 days 1 hr ago0xe0af86eb0616f1a754acbc1d8d2613716843a7fcOUT 0x53d2b74d1be61c7c7461ad2c38f92eee96e6457a0.000002205544249 BNB0.00790869
0xd9e9006d2c486fa2be83d5d6e97e2a037f8c58be37ace3114f653b0f4c14f8e1Cross Borrow120605542021-09-04 2:09:2753 days 1 hr ago0xe0af86eb0616f1a754acbc1d8d2613716843a7fcOUT 0x53d2b74d1be61c7c7461ad2c38f92eee96e6457a0.000039287638177 BNB0.00790869
0xf0f29d78fd9096cd352b295403ed517989756e267a30b6931f9d7623bdd20e0aCross Refinance120605342021-09-04 2:08:2753 days 1 hr ago0xe0af86eb0616f1a754acbc1d8d2613716843a7fcOUT 0x47f4d80b43851170fa98425498d51590f83e112e0.000002205544249 BNB0.00786502
0x7bf77d9302b2712103fd6a1a50482e67f60119f12c00c85fba8ec58ec5711098Mint120605042021-09-04 2:06:5753 days 1 hr ago0xe0af86eb0616f1a754acbc1d8d2613716843a7fcOUT 0x47f4d80b43851170fa98425498d51590f83e112e0 BNB0.00222074
0xbbd19a89d941084d52e9ecbfe9d405d21981923606c1e1344bb296896983b03aApprove120604972021-09-04 2:06:3653 days 1 hr ago0xe0af86eb0616f1a754acbc1d8d2613716843a7fcOUT 0xbbdc774d731423c884047e5b49c0d381ed4214bf0 BNB0.00029383
0xf78c38676b0a59574c75bbc2ff7b1d9c7a173a2dfed81e88c37a6b21c255e627Borrow120418412021-09-03 9:59:4153 days 17 hrs ago0xe0af86eb0616f1a754acbc1d8d2613716843a7fcOUT 0x53d2b74d1be61c7c7461ad2c38f92eee96e6457a0 BNB0.00570241
0xf57866d2ce11f4ad538c37c4220c8fe00e5dd5c94a838c684b1c85382656fd1cCross Refinance120417712021-09-03 9:56:1153 days 17 hrs ago0xe0af86eb0616f1a754acbc1d8d2613716843a7fcOUT 0x91f968c15d4a935b4f1132f933a841ce92a1f5c40 BNB0.00754325
0xd7c64583791764ad0500f204d18b2c54e59554d30b24b70c0dec848c6ee99c490xef748bcf120410322021-09-03 9:19:1453 days 18 hrs ago0xe0af86eb0616f1a754acbc1d8d2613716843a7fcOUT 0x0bc9caec0148e83946975852246c3355df4615ff0 BNB0.0021184
0xd2bf5fa8cb3394070da0b27789a621bc6fe11f5f297f8397da4c19ef4651cfbaRedeem120408772021-09-03 9:11:2953 days 18 hrs ago0xe0af86eb0616f1a754acbc1d8d2613716843a7fcOUT 0x53d2b74d1be61c7c7461ad2c38f92eee96e6457a0 BNB0.00428065
0x230083b08a56ced531e26b1f207288cd79eda0a14d24c20648b87f23f78dbb46Approve120405452021-09-03 8:54:5353 days 18 hrs ago0xe0af86eb0616f1a754acbc1d8d2613716843a7fcOUT 0xea55f04358fbd1cded2319ad5577c82d8043087f0 BNB0.00044406
0x030e704cd89dfcae4f955eaf8903cab4d0964b2a5c84c70bb3aebb84fa7cb9b90xef748bcf120398392021-09-03 8:19:3553 days 19 hrs ago0xe0af86eb0616f1a754acbc1d8d2613716843a7fcOUT 0x0bc9caec0148e83946975852246c3355df4615ff0 BNB0.00211798
0xcbf9771c29b3941760dbd8065972fb28f6b7fbf6153d3f9aa05f8862bbcae66eCross Refinance120397452021-09-03 8:14:5353 days 19 hrs ago0xe0af86eb0616f1a754acbc1d8d2613716843a7fcOUT 0x91f968c15d4a935b4f1132f933a841ce92a1f5c40 BNB0.00676597
0x0222fd82fe891631524aa04ae20818fba4d663523914fb5cc9c3c48bb47e4de9Mint120397292021-09-03 8:14:0553 days 19 hrs ago0xe0af86eb0616f1a754acbc1d8d2613716843a7fcOUT 0x91f968c15d4a935b4f1132f933a841ce92a1f5c40 BNB0.00237062
[ Download CSV Export 
Latest 8 internal transactions
Parent Txn Hash Block From To Value
0x665c4339a7fa168358635928c8101e6251c500cf124a8e250aaff86f082ec426103009872021-07-04 13:46:06114 days 13 hrs ago 0xa9f43228bccd0a8cd76875a38c630491b0dd8ecb0xe0af86eb0616f1a754acbc1d8d2613716843a7fc0.033 BNB
0x78a95d6b8e3f0729d582b3b8903dc90dc496ed337cc203b627144e01315f104c94087652021-06-03 12:32:20145 days 15 hrs ago 0xa9f43228bccd0a8cd76875a38c630491b0dd8ecb0xe0af86eb0616f1a754acbc1d8d2613716843a7fc0.1 BNB
0x80222c5da19773a8912360a156e1e14f98247f559fca18b65e05684b03b1162f94087052021-06-03 12:29:20145 days 15 hrs ago 0x0e720a0de1a6e73873615c4304f536a93f8b306e0xe0af86eb0616f1a754acbc1d8d2613716843a7fc0.000999067382634641 BNB
0x97df47cfcedd5d52022cdf7c319ecf3b58b93c0bb67bc48a3d35ed511c0a6dd294086572021-06-03 12:26:56145 days 15 hrs ago 0xa9f43228bccd0a8cd76875a38c630491b0dd8ecb0xe0af86eb0616f1a754acbc1d8d2613716843a7fc1 BNB
0x45fcd2ae2c85226e53e84ef90b8f5c81dcf72b857ab73f45724db14ef48a80f194086522021-06-03 12:26:41145 days 15 hrs ago 0xa9f43228bccd0a8cd76875a38c630491b0dd8ecb0xe0af86eb0616f1a754acbc1d8d2613716843a7fc0.007853390206039871 BNB
0xbc8a4261fbfc096b7337609a2f5eb5936e9f51add147531d70b675ac02881ada88953872021-05-16 15:21:02163 days 12 hrs ago 0xa9f43228bccd0a8cd76875a38c630491b0dd8ecb0xe0af86eb0616f1a754acbc1d8d2613716843a7fc0.000000079181280772 BNB
0x83776101fd1afe3a9fbb897be632ddfc78fcb3b133d7f96f8a46798e26117ffa88387212021-05-14 16:07:44165 days 11 hrs ago 0xa9f43228bccd0a8cd76875a38c630491b0dd8ecb0xe0af86eb0616f1a754acbc1d8d2613716843a7fc0.000001 BNB
0x9081af14dcf69df7b917e8e6ee9839da337ed6e58da65318ef2a5d5c5969973277739802021-04-07 16:15:12202 days 11 hrs ago 0xa9f43228bccd0a8cd76875a38c630491b0dd8ecb0xe0af86eb0616f1a754acbc1d8d2613716843a7fc2.559869 BNB
[ Download CSV Export 
Loading

Contract Name:
0 BNB

Compiler Version
0

Optimization Enabled:
0 BNB

Other Settings:
-NA-
Block Transaction Gas Used Reward
Age Block Fee Address BC Fee Address Voting Power Jailed Incoming
Block Uncle Number Difficulty Gas Used Reward
Loading